This is the latest recevied weather packets stored in our database for station/object HF3P-11. If no packets are shown the sender has not sent any weather packets the latest 10 day(s).
| Time | Temp. | Humidity | Pressure | Rain* | Wind** | Luminosity | Snow |
|---|---|---|---|---|---|---|---|
| 1787826604 | 22.78° C | 52% | 1015.4 hPa | 0 mm | - | - | - |
| 1787826296 | 22.78° C | 51% | 1015.4 hPa | 0 mm | - | - | - |
| 1787825996 | 22.78° C | 53% | 1015.4 hPa | 0 mm | - | - | - |
| 1787825704 | 22.78° C | 54% | 1015.4 hPa | 0 mm | - | - | - |
| 1787825396 | 22.78° C | 53% | 1015.4 hPa | 0 mm | - | - | - |
| 1787825105 | 22.22° C | 55% | 1015.4 hPa | 0 mm | - | - | - |
| 1787824796 | 22.22° C | 55% | 1015.5 hPa | 0 mm | - | - | - |
| 1787824504 | 22.22° C | 55% | 1015.5 hPa | 0 mm | - | - | - |
| 1787824196 | 22.22° C | 55% | 1015.4 hPa | 0 mm | - | - | - |
| 1787823896 | 22.22° C | 56% | 1015.5 hPa | 0 mm | - | - | - |
| 1787823604 | 22.22° C | 58% | 1015.5 hPa | 0 mm | - | - | - |
| 1787823295 | 22.22° C | 58% | 1015.5 hPa | 0 mm | - | - | - |
| 1787822995 | 22.22° C | 59% | 1015.5 hPa | 0 mm | - | - | - |
| 1787822695 | 22.22° C | 56% | 1015.5 hPa | 0 mm | - | - | - |
| 1787822405 | 22.22° C | 59% | 1015.5 hPa | 0 mm | - | - | - |
| 1787822105 | 22.22° C | 62% | 1015.7 hPa | 0 mm | - | - | - |
| 1787821795 | 22.22° C | 58% | 1015.6 hPa | 0 mm | - | - | - |
| 1787821504 | 21.67° C | 64% | 1015.8 hPa | 0 mm | - | - | - |
| 1787821196 | 21.67° C | 64% | 1015.6 hPa | 0 mm | - | - | - |
| 1787820904 | 21.67° C | 64% | 1015.6 hPa | 0 mm | - | - | - |
| 1787820595 | 21.67° C | 63% | 1015.8 hPa | 0 mm | - | - | - |
| 1787820305 | 21.67° C | 65% | 1015.7 hPa | 0 mm | - | - | - |
| 1787819996 | 21.11° C | 64% | 1015.6 hPa | 0 mm | - | - | - |
| 1787819705 | 21.11° C | 65% | 1015.5 hPa | 0 mm | - | - | - |
| 1787819404 | 21.11° C | 65% | 1015.6 hPa | 0 mm | - | - | - |
* Rain latest hour (hover to see other rain measurements)
** Current wind speed in m/s (hover to see current wind gust speed)